Location: Unspecified
(40.9447°N, 78.9903°W)
Time: 18:12:55
(UTC-04:00)

Envisat - Pass Details

Date: 23 May 2019
Orbit: 764 x 766 km, 98.1° (Epoch: 25 June)

Event Time Altitude Azimuth Distance (km) Brightness Sun altitude
Rises 21:17:22 0° 221° (SW) 3,221 6.3 -7.7°
Reaches altitude 10° 21:21:45 10° 257° (WSW) 2,302 6.1 -8.4°
Maximum altitude 21:23:01 11° 272° (W) 2,245 6.3 -8.6°
Drops below altitude 10° 21:24:17 10° 286° (WNW) 2,306 6.8 -8.7°
Sets 21:28:43 0° 323° (NW) 3,240 8.0 -9.4°
